• In Belgium
  • List of Countries
  • For 7 days
  • Water Temperature
  • Satellite Maps
  • Weather Map
  • Weather Widgets
  • user-avatar
    Login

    Hourly Weather Yulara

    Today, 20 October, Friday

    Time Temperature Precipitation Wind Pressure Humidity
    00:00 +27°C° 0 mm 10 mps 722 mmHg 35%
    01:00 +26°C° 0 mm 10 mps 722 mmHg 34%
    02:00 +24°C° 0 mm 10 mps 722 mmHg 34%
    03:00 +23°C° 0 mm 9 mps 721 mmHg 34%
    04:00 +22°C° 0 mm 9 mps 722 mmHg 34%
    05:00 +21°C° 0 mm 8 mps 722 mmHg 35%
    06:00 +20°C° 0 mm 8 mps 722 mmHg 35%
    07:00 +22°C° 0 mm 9 mps 723 mmHg 33%
    08:00 +23°C° 0 mm 9 mps 723 mmHg 32%
    09:00 +26°C° 0 mm 9 mps 724 mmHg 28%
    10:00 +28°C° 0 mm 9 mps 724 mmHg 26%
    11:00 +31°C° 0 mm 9 mps 723 mmHg 25%
    12:00 +33°C° 0 mm 9 mps 723 mmHg 23%
    13:00 +34°C° 0 mm 9 mps 722 mmHg 23%
    14:00 +34°C° 0 mm 9 mps 722 mmHg 23%
    15:00 +35°C° 0 mm 8 mps 722 mmHg 23%
    16:00 +34°C° 0 mm 9 mps 722 mmHg 24%
    17:00 +33°C° 0 mm 9 mps 722 mmHg 26%
    18:00 +32°C° 0 mm 9 mps 722 mmHg 27%
    19:00 +31°C° 0 mm 9 mps 723 mmHg 27%
    20:00 +28°C° 0 mm 8 mps 723 mmHg 28%
    21:00 +27°C° 0 mm 7 mps 724 mmHg 28%
    22:00 +26°C° 0 mm 7 mps 724 mmHg 26%
    23:00 +26°C° 0 mm 6 mps 724 mmHg 24%

    Tomorrow, 21 October, Saturday

    Time Temperature Precipitation Wind Pressure Humidity
    00:00 +24°C° 0 mm 6 mps 724 mmHg 23%
    01:00 +23°C° 0 mm 6 mps 723 mmHg 21%
    02:00 +22°C° 0 mm 6 mps 723 mmHg 20%
    03:00 +22°C° 0 mm 6 mps 723 mmHg 18%
    04:00 +21°C° 0 mm 6 mps 723 mmHg 19%
    05:00 +21°C° 0 mm 6 mps 723 mmHg 20%
    06:00 +20°C° 0 mm 6 mps 723 mmHg 21%
    07:00 +22°C° 0 mm 7 mps 723 mmHg 20%
    08:00 +24°C° 0 mm 7 mps 724 mmHg 18%
    09:00 +26°C° 0 mm 8 mps 724 mmHg 17%
    10:00 +28°C° 0 mm 7 mps 724 mmHg 16%
    11:00 +30°C° 0 mm 7 mps 723 mmHg 15%
    12:00 +32°C° 0 mm 6 mps 723 mmHg 14%
    13:00 +33°C° 0 mm 6 mps 722 mmHg 13%
    14:00 +33°C° 0 mm 6 mps 722 mmHg 12%
    15:00 +34°C° 0 mm 6 mps 721 mmHg 11%
    16:00 +33°C° 0 mm 6 mps 721 mmHg 10%
    17:00 +33°C° 0 mm 6 mps 721 mmHg 10%
    18:00 +32°C° 0 mm 6 mps 721 mmHg 10%
    19:00 +29°C° 0 mm 6 mps 721 mmHg 12%
    20:00 +28°C° 0 mm 5 mps 721 mmHg 14%
    21:00 +26°C° 0 mm 5 mps 722 mmHg 15%
    22:00 +25°C° 0 mm 5 mps 721 mmHg 17%
    23:00 +25°C° 0 mm 5 mps 721 mmHg 18%

    Day after tomorrow, 22 October, Sunday

    Time Temperature Precipitation Wind Pressure Humidity
    00:00 +23°C° 0 mm 5 mps 721 mmHg 20%
    01:00 +22°C° 0 mm 5 mps 721 mmHg 21%
    02:00 +21°C° 0 mm 4 mps 720 mmHg 22%
    03:00 +20°C° 0 mm 4 mps 720 mmHg 23%
    04:00 +20°C° 0 mm 4 mps 720 mmHg 23%
    05:00 +19°C° 0 mm 4 mps 720 mmHg 24%
    06:00 +19°C° 0 mm 4 mps 720 mmHg 24%
    07:00 +21°C° 0 mm 5 mps 721 mmHg 21%
    08:00 +25°C° 0 mm 5 mps 721 mmHg 18%
    09:00 +27°C° 0 mm 6 mps 721 mmHg 15%
    10:00 +28°C° 0 mm 6 mps 721 mmHg 13%
    11:00 +29°C° 0 mm 5 mps 721 mmHg 12%
    12:00 +32°C° 0 mm 5 mps 720 mmHg 10%
    13:00 +32°C° 0 mm 4 mps 720 mmHg 10%
    14:00 +33°C° 0 mm 4 mps 719 mmHg 9%
    15:00 +34°C° 0 mm 4 mps 718 mmHg 8%
    16:00 +33°C° 0 mm 4 mps 718 mmHg 9%
    17:00 +33°C° 0 mm 3 mps 718 mmHg 9%
    18:00 +31°C° 0 mm 3 mps 718 mmHg 9%
    19:00 +30°C° 0 mm 3 mps 719 mmHg 10%
    20:00 +28°C° 0 mm 4 mps 719 mmHg 11%
    21:00 +27°C° 0 mm 4 mps 719 mmHg 12%
    22:00 +26°C° 0 mm 4 mps 719 mmHg 13%
    23:00 +26°C° 0 mm 5 mps 719 mmHg 14%

    23 October, Monday

    Time Temperature Precipitation Wind Pressure Humidity
    00:00 +25°C° 0 mm 5 mps 719 mmHg 15%
    01:00 +23°C° 0 mm 4 mps 719 mmHg 16%
    02:00 +23°C° 0 mm 4 mps 718 mmHg 17%
    03:00 +22°C° 0 mm 4 mps 718 mmHg 18%
    04:00 +21°C° 0 mm 4 mps 718 mmHg 19%
    05:00 +21°C° 0 mm 4 mps 718 mmHg 19%
    06:00 +20°C° 0 mm 4 mps 718 mmHg 20%
    07:00 +23°C° 0 mm 4 mps 718 mmHg 18%
    08:00 +26°C° 0 mm 5 mps 719 mmHg 15%
    09:00 +29°C° 0 mm 6 mps 719 mmHg 12%
    10:00 +30°C° 0 mm 5 mps 719 mmHg 11%
    11:00 +33°C° 0 mm 4 mps 719 mmHg 10%
    12:00 +34°C° 0 mm 3 mps 719 mmHg 9%
    13:00 +35°C° 0 mm 3 mps 718 mmHg 9%
    14:00 +35°C° 0 mm 2 mps 717 mmHg 10%
    15:00 +35°C° 0 mm 1 mps 717 mmHg 11%
    16:00 +35°C° 0 mm 1 mps 717 mmHg 12%
    17:00 +34°C° 0 mm 1 mps 717 mmHg 13%
    18:00 +34°C° 0 mm 1 mps 717 mmHg 14%
    19:00 +33°C° 0 mm 1 mps 717 mmHg 14%
    20:00 +32°C° 0 mm 2 mps 718 mmHg 15%
    21:00 +31°C° 0 mm 2 mps 718 mmHg 15%
    22:00 +30°C° 0 mm 3 mps 718 mmHg 16%
    23:00 +29°C° 0 mm 3 mps 718 mmHg 16%

    24 October, Tuesday

    Time Temperature Precipitation Wind Pressure Humidity
    00:00 +29°C° 0 mm 4 mps 717 mmHg 17%
    01:00 +28°C° 0 mm 4 mps 717 mmHg 16%
    02:00 +27°C° 0 mm 4 mps 717 mmHg 16%
    03:00 +26°C° 0 mm 4 mps 716 mmHg 15%
    04:00 +26°C° 0 mm 4 mps 716 mmHg 15%
    05:00 +26°C° 0 mm 4 mps 717 mmHg 16%
    06:00 +25°C° 0 mm 3 mps 717 mmHg 16%
    07:00 +28°C° 0 mm 4 mps 718 mmHg 14%
    08:00 +32°C° 0 mm 5 mps 718 mmHg 12%
    09:00 +35°C° 0 mm 7 mps 719 mmHg 9%
    10:00 +38°C° 0 mm 6 mps 718 mmHg 9%
    11:00 +39°C° 0 mm 6 mps 718 mmHg 8%
    12:00 +40°C° 0 mm 6 mps 718 mmHg 8%
    13:00 +41°C° 0 mm 6 mps 717 mmHg 8%
    14:00 +41°C° 0 mm 6 mps 716 mmHg 8%
    15:00 +42°C° 0 mm 5 mps 716 mmHg 8%
    16:00 +41°C° 0 mm 5 mps 716 mmHg 8%
    17:00 +40°C° 0 mm 5 mps 716 mmHg 8%
    18:00 +40°C° 0 mm 4 mps 716 mmHg 9%
    19:00 +37°C° 0 mm 4 mps 716 mmHg 10%
    20:00 +36°C° 0 mm 3 mps 717 mmHg 10%
    21:00 +34°C° 0 mm 3 mps 717 mmHg 11%
    22:00 +34°C° 0 mm 3 mps 717 mmHg 13%
    23:00 +33°C° 0 mm 3 mps 717 mmHg 14%

    25 October, Wednesday

    Time Temperature Precipitation Wind Pressure Humidity
    00:00 +31°C° 0 mm 3 mps 716 mmHg 15%
    01:00 +30°C° 0 mm 3 mps 716 mmHg 17%
    02:00 +29°C° 0 mm 3 mps 716 mmHg 20%
    03:00 +29°C° 0 mm 3 mps 715 mmHg 22%
    04:00 +28°C° 0 mm 3 mps 716 mmHg 23%
    05:00 +28°C° 0 mm 4 mps 716 mmHg 24%
    06:00 +27°C° 0 mm 4 mps 717 mmHg 26%
    07:00 +29°C° 0 mm 4 mps 717 mmHg 23%
    08:00 +33°C° 0 mm 4 mps 718 mmHg 20%
    09:00 +35°C° 0 mm 4 mps 718 mmHg 17%
    10:00 +37°C° 0 mm 4 mps 718 mmHg 15%
    11:00 +38°C° 0 mm 4 mps 717 mmHg 13%
    12:00 +41°C° 0 mm 4 mps 717 mmHg 11%
    13:00 +42°C° 0 mm 5 mps 716 mmHg 11%
    14:00 +42°C° 0 mm 5 mps 716 mmHg 10%
    15:00 +44°C° 0 mm 6 mps 715 mmHg 9%
    16:00 +42°C° 0 mm 6 mps 715 mmHg 10%
    17:00 +40°C° 0 mm 7 mps 716 mmHg 12%
    18:00 +39°C° 0 mm 7 mps 716 mmHg 13%
    19:00 +38°C° 0 mm 6 mps 716 mmHg 16%
    20:00 +35°C° 0 mm 6 mps 717 mmHg 18%
    21:00 +34°C° 0 mm 6 mps 717 mmHg 21%
    22:00 +33°C° 0 mm 5 mps 717 mmHg 22%
    23:00 +32°C° 0 mm 5 mps 717 mmHg 23%
    Show more